Year,Month,Day,Hour,Minute,Value (Times are PST for windspeed in km/hr)
2017,04,07,00,00,0.20
2017,04,07,00,01,0.00
2017,04,07,00,02,0.00
2017,04,07,00,03,0.00
2017,04,07,00,04,0.00
2017,04,07,00,05,0.80
2017,04,07,00,06,1.50
2017,04,07,00,07,1.90
2017,04,07,00,08,1.60
2017,04,07,00,09,1.50
2017,04,07,00,10,0.50
2017,04,07,00,11,0.30
2017,04,07,00,12,0.00
2017,04,07,00,13,0.20
2017,04,07,00,14,1.60
2017,04,07,00,15,1.10
2017,04,07,00,16,0.90
2017,04,07,00,17,0.10
2017,04,07,00,18,0.00
2017,04,07,00,19,0.00
2017,04,07,00,20,0.10
2017,04,07,00,21,0.40
2017,04,07,00,22,0.10
2017,04,07,00,23,0.10
2017,04,07,00,24,0.50
2017,04,07,00,25,1.10
2017,04,07,00,26,1.10
2017,04,07,00,27,1.40
2017,04,07,00,28,1.00
2017,04,07,00,29,0.40
2017,04,07,00,30,1.20
2017,04,07,00,31,0.90
2017,04,07,00,32,0.00
2017,04,07,00,33,0.90
2017,04,07,00,34,0.00
2017,04,07,00,35,0.00
2017,04,07,00,36,0.00
2017,04,07,00,37,0.00
2017,04,07,00,38,0.00
2017,04,07,00,39,0.00
2017,04,07,00,40,0.00
2017,04,07,00,41,0.10
2017,04,07,00,42,0.00
2017,04,07,00,43,0.00
2017,04,07,00,44,0.00
2017,04,07,00,45,0.00
2017,04,07,00,46,0.60
2017,04,07,00,47,0.00
2017,04,07,00,48,0.00
2017,04,07,00,49,0.00
2017,04,07,00,50,0.00
2017,04,07,00,51,0.00
2017,04,07,00,52,0.00
2017,04,07,00,53,0.00
2017,04,07,00,54,0.00
2017,04,07,00,55,0.00
2017,04,07,00,56,0.00
2017,04,07,00,57,0.00
2017,04,07,00,58,0.00
2017,04,07,00,59,0.00
2017,04,07,01,00,0.00
2017,04,07,01,01,0.00
2017,04,07,01,02,0.00
2017,04,07,01,03,0.00
2017,04,07,01,04,0.00
2017,04,07,01,05,0.00
2017,04,07,01,06,0.00
2017,04,07,01,07,0.00
2017,04,07,01,08,0.00
2017,04,07,01,09,0.00
2017,04,07,01,10,0.00
2017,04,07,01,11,1.10
2017,04,07,01,12,0.10
2017,04,07,01,13,0.20
2017,04,07,01,14,1.40
2017,04,07,01,15,2.30
2017,04,07,01,16,3.10
2017,04,07,01,17,2.30
2017,04,07,01,18,1.00
2017,04,07,01,19,1.10
2017,04,07,01,20,0.00
2017,04,07,01,21,0.00
2017,04,07,01,22,0.00
2017,04,07,01,23,0.00
2017,04,07,01,24,0.00
2017,04,07,01,25,0.00
2017,04,07,01,26,0.00
2017,04,07,01,27,0.00
2017,04,07,01,28,0.00
2017,04,07,01,29,0.00
2017,04,07,01,30,0.00
2017,04,07,01,31,0.00
2017,04,07,01,32,0.00
2017,04,07,01,33,0.00
2017,04,07,01,34,0.00
2017,04,07,01,35,0.00
2017,04,07,01,36,0.00
2017,04,07,01,37,0.00
2017,04,07,01,38,0.00
2017,04,07,01,39,0.00
2017,04,07,01,40,0.00
2017,04,07,01,41,0.00
2017,04,07,01,42,0.90
2017,04,07,01,43,0.50
2017,04,07,01,44,0.70
2017,04,07,01,45,0.90
2017,04,07,01,46,0.50
2017,04,07,01,47,0.10
2017,04,07,01,48,0.40
2017,04,07,01,49,1.40
2017,04,07,01,50,1.30
2017,04,07,01,51,1.60
2017,04,07,01,52,1.10
2017,04,07,01,53,0.70
2017,04,07,01,54,1.30
2017,04,07,01,55,0.80
2017,04,07,01,56,1.70
2017,04,07,01,57,2.40
2017,04,07,01,58,0.70
2017,04,07,01,59,0.00
2017,04,07,02,00,0.20
2017,04,07,02,01,0.60
2017,04,07,02,02,0.80
2017,04,07,02,03,1.80
2017,04,07,02,04,1.50
2017,04,07,02,05,1.50
2017,04,07,02,06,2.30
2017,04,07,02,07,0.90
2017,04,07,02,08,0.00
2017,04,07,02,09,0.00
2017,04,07,02,10,0.40
2017,04,07,02,11,0.60
2017,04,07,02,12,2.40
2017,04,07,02,13,2.20
2017,04,07,02,14,0.60
2017,04,07,02,15,1.00
2017,04,07,02,16,1.60
2017,04,07,02,17,1.20
2017,04,07,02,18,2.10
2017,04,07,02,19,0.70
2017,04,07,02,20,0.70
2017,04,07,02,21,1.20
2017,04,07,02,22,1.40
2017,04,07,02,23,1.40
2017,04,07,02,24,1.60
2017,04,07,02,25,1.70
2017,04,07,02,26,0.40
2017,04,07,02,27,1.10
2017,04,07,02,28,0.50
2017,04,07,02,29,0.60
2017,04,07,02,30,1.20
2017,04,07,02,31,0.60
2017,04,07,02,32,1.80
2017,04,07,02,33,2.20
2017,04,07,02,34,2.20
2017,04,07,02,35,2.30
2017,04,07,02,36,2.20
2017,04,07,02,37,1.70
2017,04,07,02,38,0.50
2017,04,07,02,39,1.20
2017,04,07,02,40,1.80
2017,04,07,02,41,0.90
2017,04,07,02,42,2.40
2017,04,07,02,43,1.50
2017,04,07,02,44,1.60
2017,04,07,02,45,1.40
2017,04,07,02,46,0.60
2017,04,07,02,47,0.30
2017,04,07,02,48,0.10
2017,04,07,02,49,0.00
2017,04,07,02,50,1.90
2017,04,07,02,51,0.00
2017,04,07,02,52,1.90
2017,04,07,02,53,1.40
2017,04,07,02,54,2.10
2017,04,07,02,55,1.60
2017,04,07,02,56,0.80
2017,04,07,02,57,1.00
2017,04,07,02,58,1.10
2017,04,07,02,59,2.70
2017,04,07,03,00,2.40
2017,04,07,03,01,3.10
2017,04,07,03,02,2.40
2017,04,07,03,03,1.10
2017,04,07,03,04,0.00
2017,04,07,03,05,0.00
2017,04,07,03,06,0.40
2017,04,07,03,07,1.50
2017,04,07,03,08,0.60
2017,04,07,03,09,1.60
2017,04,07,03,10,1.20
2017,04,07,03,11,0.60
2017,04,07,03,12,1.60
2017,04,07,03,13,0.80
2017,04,07,03,14,0.60
2017,04,07,03,15,1.40
2017,04,07,03,16,0.20
2017,04,07,03,17,0.60
2017,04,07,03,18,0.00
2017,04,07,03,19,0.50
2017,04,07,03,20,0.60
2017,04,07,03,21,0.30
2017,04,07,03,22,0.00
2017,04,07,03,23,0.70
2017,04,07,03,24,3.20
2017,04,07,03,25,0.90
2017,04,07,03,26,0.70
2017,04,07,03,27,0.80
2017,04,07,03,28,1.60
2017,04,07,03,29,1.10
2017,04,07,03,30,0.40
2017,04,07,03,31,0.80
2017,04,07,03,32,0.10
2017,04,07,03,33,0.00
2017,04,07,03,34,0.00
2017,04,07,03,35,1.70
2017,04,07,03,36,5.40
2017,04,07,03,37,1.80
2017,04,07,03,38,1.10
2017,04,07,03,39,1.20
2017,04,07,03,40,1.60
2017,04,07,03,41,1.10
2017,04,07,03,42,1.00
2017,04,07,03,43,1.80
2017,04,07,03,44,0.90
2017,04,07,03,45,0.10
2017,04,07,03,46,0.10
2017,04,07,03,47,0.00
2017,04,07,03,48,0.00
2017,04,07,03,49,0.00
2017,04,07,03,50,0.40
2017,04,07,03,51,0.10
2017,04,07,03,52,0.20
2017,04,07,03,53,1.30
2017,04,07,03,54,1.60
2017,04,07,03,55,0.20
2017,04,07,03,56,3.00
2017,04,07,03,57,1.30
2017,04,07,03,58,0.70
2017,04,07,03,59,0.60
2017,04,07,04,00,0.80
2017,04,07,04,01,2.10
2017,04,07,04,02,1.90
2017,04,07,04,03,1.70
2017,04,07,04,04,0.90
2017,04,07,04,05,1.60
2017,04,07,04,06,0.10
2017,04,07,04,07,0.60
2017,04,07,04,08,0.50
2017,04,07,04,09,0.00
2017,04,07,04,10,0.00
2017,04,07,04,11,0.10
2017,04,07,04,12,0.00
2017,04,07,04,13,0.80
2017,04,07,04,14,0.90
2017,04,07,04,15,2.80
2017,04,07,04,16,2.40
2017,04,07,04,17,1.30
2017,04,07,04,18,0.90
2017,04,07,04,19,1.90
2017,04,07,04,20,1.30
2017,04,07,04,21,1.40
2017,04,07,04,22,0.70
2017,04,07,04,23,1.40
2017,04,07,04,24,0.20
2017,04,07,04,25,0.10
2017,04,07,04,26,0.00
2017,04,07,04,27,0.00
2017,04,07,04,28,0.00
2017,04,07,04,29,0.20
2017,04,07,04,30,0.80
2017,04,07,04,31,1.40
2017,04,07,04,32,0.90
2017,04,07,04,33,0.40
2017,04,07,04,34,2.40
2017,04,07,04,35,2.80
2017,04,07,04,36,1.70
2017,04,07,04,37,2.40
2017,04,07,04,38,1.20
2017,04,07,04,39,0.40
2017,04,07,04,40,0.50
2017,04,07,04,41,0.70
2017,04,07,04,42,0.90
2017,04,07,04,43,2.20
2017,04,07,04,44,2.60
2017,04,07,04,45,2.20
2017,04,07,04,46,2.20
2017,04,07,04,47,2.70
2017,04,07,04,48,2.50
2017,04,07,04,49,3.20
2017,04,07,04,50,2.80
2017,04,07,04,51,1.60
2017,04,07,04,52,2.60
2017,04,07,04,53,5.70
2017,04,07,04,54,5.80
2017,04,07,04,55,4.10
2017,04,07,04,56,1.40
2017,04,07,04,57,6.30
2017,04,07,04,58,7.30
2017,04,07,04,59,2.70
2017,04,07,05,00,1.60
2017,04,07,05,01,1.90
2017,04,07,05,02,2.20
2017,04,07,05,03,1.50
2017,04,07,05,04,3.00
2017,04,07,05,05,3.80
2017,04,07,05,06,2.10
2017,04,07,05,07,1.50
2017,04,07,05,08,2.20
2017,04,07,05,09,2.50
2017,04,07,05,10,1.80
2017,04,07,05,11,3.30
2017,04,07,05,12,2.20
2017,04,07,05,13,1.40
2017,04,07,05,14,3.00
2017,04,07,05,15,3.20
2017,04,07,05,16,3.50
2017,04,07,05,17,3.20
2017,04,07,05,18,2.80
2017,04,07,05,19,1.10
2017,04,07,05,20,0.50
2017,04,07,05,21,0.20
2017,04,07,05,22,0.60
2017,04,07,05,23,0.20
2017,04,07,05,24,0.30
2017,04,07,05,25,0.60
2017,04,07,05,26,0.10
2017,04,07,05,27,0.30
2017,04,07,05,28,0.00
2017,04,07,05,29,0.00
2017,04,07,05,30,0.00
2017,04,07,05,31,0.10
2017,04,07,05,32,1.80
2017,04,07,05,33,0.20
2017,04,07,05,34,0.30
2017,04,07,05,35,0.80
2017,04,07,05,36,0.00
2017,04,07,05,37,0.00
2017,04,07,05,38,0.00
2017,04,07,05,39,0.00
2017,04,07,05,40,0.00
2017,04,07,05,41,0.00
2017,04,07,05,42,0.00
2017,04,07,05,43,0.00
2017,04,07,05,44,0.00
2017,04,07,05,45,0.00
2017,04,07,05,46,0.00
2017,04,07,05,47,0.00
2017,04,07,05,48,0.00
2017,04,07,05,49,0.00
2017,04,07,05,50,0.00
2017,04,07,05,51,0.00
2017,04,07,05,52,0.20
2017,04,07,05,53,0.00
2017,04,07,05,54,0.00
2017,04,07,05,55,0.00
2017,04,07,05,56,0.00
2017,04,07,05,57,0.00
2017,04,07,05,58,0.00
2017,04,07,05,59,0.00
2017,04,07,06,00,0.00
2017,04,07,06,01,0.00
2017,04,07,06,02,0.00
2017,04,07,06,03,0.10
2017,04,07,06,04,0.20
2017,04,07,06,05,1.20
2017,04,07,06,06,0.30
2017,04,07,06,07,1.40
2017,04,07,06,08,1.80
2017,04,07,06,09,0.40
2017,04,07,06,10,0.00
2017,04,07,06,11,0.00
2017,04,07,06,12,0.00
2017,04,07,06,13,0.00
2017,04,07,06,14,0.00
2017,04,07,06,15,0.00
2017,04,07,06,16,0.50
2017,04,07,06,17,0.70
2017,04,07,06,18,0.50
2017,04,07,06,19,0.10
2017,04,07,06,20,0.20
2017,04,07,06,21,0.40
2017,04,07,06,22,0.00
2017,04,07,06,23,0.00
2017,04,07,06,24,0.00
2017,04,07,06,25,0.40
2017,04,07,06,26,1.10
2017,04,07,06,27,0.30
2017,04,07,06,28,0.70
2017,04,07,06,29,0.40
2017,04,07,06,30,0.00
2017,04,07,06,31,0.00
2017,04,07,06,32,0.00
2017,04,07,06,33,0.00
2017,04,07,06,34,0.00
2017,04,07,06,35,0.00
2017,04,07,06,36,0.00
2017,04,07,06,37,0.00
2017,04,07,06,38,0.00
2017,04,07,06,39,0.00
2017,04,07,06,40,0.00
2017,04,07,06,41,0.00
2017,04,07,06,42,0.00
2017,04,07,06,43,0.00
2017,04,07,06,44,0.00
2017,04,07,06,45,0.00
2017,04,07,06,46,0.00
2017,04,07,06,47,0.00
2017,04,07,06,48,0.00
2017,04,07,06,49,0.00
2017,04,07,06,50,0.10
2017,04,07,06,51,0.00
2017,04,07,06,52,0.00
2017,04,07,06,53,0.00
2017,04,07,06,54,0.00
2017,04,07,06,55,0.00
2017,04,07,06,56,0.00
2017,04,07,06,57,0.00
2017,04,07,06,58,0.00
2017,04,07,06,59,0.00
2017,04,07,07,00,0.00
2017,04,07,07,01,0.00
2017,04,07,07,02,0.00
2017,04,07,07,03,0.00
2017,04,07,07,04,0.00
2017,04,07,07,05,0.00
2017,04,07,07,06,0.00
2017,04,07,07,07,0.00
2017,04,07,07,08,0.00
2017,04,07,07,09,0.00
2017,04,07,07,10,0.00
2017,04,07,07,11,0.00
2017,04,07,07,12,0.00
2017,04,07,07,13,0.00
2017,04,07,07,14,0.00
2017,04,07,07,15,0.00
2017,04,07,07,16,0.00
2017,04,07,07,17,0.00
2017,04,07,07,18,0.00
2017,04,07,07,19,0.00
2017,04,07,07,20,0.00
2017,04,07,07,21,0.00
2017,04,07,07,22,0.10
2017,04,07,07,23,1.10
2017,04,07,07,24,0.50
2017,04,07,07,25,0.00
2017,04,07,07,26,0.00
2017,04,07,07,27,0.10
2017,04,07,07,28,0.00
2017,04,07,07,29,0.00
2017,04,07,07,30,0.00
2017,04,07,07,31,0.00
2017,04,07,07,32,0.00
2017,04,07,07,33,0.00
2017,04,07,07,34,0.00
2017,04,07,07,35,0.00
2017,04,07,07,36,0.00
2017,04,07,07,37,0.00
2017,04,07,07,38,0.00
2017,04,07,07,39,0.00
2017,04,07,07,40,0.00
2017,04,07,07,41,0.00
2017,04,07,07,42,0.00
2017,04,07,07,43,0.00
2017,04,07,07,44,0.10
2017,04,07,07,45,0.00
2017,04,07,07,46,0.00
2017,04,07,07,47,0.00
2017,04,07,07,48,0.00
2017,04,07,07,49,0.30
2017,04,07,07,50,0.70
2017,04,07,07,51,0.30
2017,04,07,07,52,0.00
2017,04,07,07,53,0.00
2017,04,07,07,54,0.00
2017,04,07,07,55,0.00
2017,04,07,07,56,0.00
2017,04,07,07,57,0.00
2017,04,07,07,58,0.00
2017,04,07,07,59,0.00
2017,04,07,08,00,0.00
2017,04,07,08,01,0.00
2017,04,07,08,02,0.00
2017,04,07,08,03,0.00
2017,04,07,08,04,0.00
2017,04,07,08,05,0.00
2017,04,07,08,06,0.00
2017,04,07,08,07,0.00
2017,04,07,08,08,0.90
2017,04,07,08,09,0.80
2017,04,07,08,10,0.00
2017,04,07,08,11,0.00
2017,04,07,08,12,0.00
2017,04,07,08,13,0.00
2017,04,07,08,14,0.00
2017,04,07,08,15,0.00
2017,04,07,08,16,0.00
2017,04,07,08,17,0.00
2017,04,07,08,18,0.00
2017,04,07,08,19,1.20
2017,04,07,08,20,0.10
2017,04,07,08,21,0.20
2017,04,07,08,22,0.90
2017,04,07,08,23,0.80
2017,04,07,08,24,0.00
2017,04,07,08,25,1.00
2017,04,07,08,26,0.10
2017,04,07,08,27,0.90
2017,04,07,08,28,0.40
2017,04,07,08,29,0.00
2017,04,07,08,30,0.20
2017,04,07,08,31,0.00
2017,04,07,08,32,0.00
2017,04,07,08,33,0.00
2017,04,07,08,34,0.60
2017,04,07,08,35,1.40
2017,04,07,08,36,1.20
2017,04,07,08,37,1.40
2017,04,07,08,38,1.20
2017,04,07,08,39,1.50
2017,04,07,08,40,0.90
2017,04,07,08,41,0.00
2017,04,07,08,42,0.00
2017,04,07,08,43,0.00
2017,04,07,08,44,0.00
2017,04,07,08,45,0.00
2017,04,07,08,46,0.00
2017,04,07,08,47,0.00
2017,04,07,08,48,0.80
2017,04,07,08,49,0.90
2017,04,07,08,50,1.10
2017,04,07,08,51,1.20
2017,04,07,08,52,1.30
2017,04,07,08,53,1.20
2017,04,07,08,54,1.30
2017,04,07,08,55,1.10
2017,04,07,08,56,0.20
2017,04,07,08,57,0.20
2017,04,07,08,58,2.30
2017,04,07,08,59,1.70
2017,04,07,09,00,2.30
2017,04,07,09,01,1.40
2017,04,07,09,02,1.10
2017,04,07,09,03,0.70
2017,04,07,09,04,0.00
2017,04,07,09,05,0.00
2017,04,07,09,06,1.20
2017,04,07,09,07,1.80
2017,04,07,09,08,3.00
2017,04,07,09,09,0.10
2017,04,07,09,10,0.40
2017,04,07,09,11,0.70
2017,04,07,09,12,0.00
2017,04,07,09,13,0.00
2017,04,07,09,14,0.00
2017,04,07,09,15,0.20
2017,04,07,09,16,0.50
2017,04,07,09,17,0.10
2017,04,07,09,18,0.30
2017,04,07,09,19,0.30
2017,04,07,09,20,0.00
2017,04,07,09,21,0.10
2017,04,07,09,22,0.00
2017,04,07,09,23,0.00
2017,04,07,09,24,0.00
2017,04,07,09,25,1.30
2017,04,07,09,26,0.80
2017,04,07,09,27,1.10
2017,04,07,09,28,0.70
2017,04,07,09,29,0.20
2017,04,07,09,30,0.00
2017,04,07,09,31,0.50
2017,04,07,09,32,0.30
2017,04,07,09,33,0.10
2017,04,07,09,34,0.80
2017,04,07,09,35,1.20
2017,04,07,09,36,2.20
2017,04,07,09,37,0.70
2017,04,07,09,38,2.20
2017,04,07,09,39,2.10
2017,04,07,09,40,0.80
2017,04,07,09,41,1.30
2017,04,07,09,42,0.30
2017,04,07,09,43,1.10
2017,04,07,09,44,0.00
2017,04,07,09,45,0.70
2017,04,07,09,46,1.10
2017,04,07,09,47,0.20
2017,04,07,09,48,0.00
2017,04,07,09,49,0.00
2017,04,07,09,50,0.00
2017,04,07,09,51,0.00
2017,04,07,09,52,0.00
2017,04,07,09,53,0.00
2017,04,07,09,54,0.00
2017,04,07,09,55,0.00
2017,04,07,09,56,0.00
2017,04,07,09,57,0.00
2017,04,07,09,58,0.00
2017,04,07,09,59,0.00
2017,04,07,10,00,0.00
2017,04,07,10,01,0.00
2017,04,07,10,02,0.70
2017,04,07,10,03,0.00
2017,04,07,10,04,0.00
2017,04,07,10,05,0.00
2017,04,07,10,06,0.00
2017,04,07,10,07,0.00
2017,04,07,10,08,0.00
2017,04,07,10,09,0.00
2017,04,07,10,10,0.00
2017,04,07,10,11,0.00
2017,04,07,10,12,0.00
2017,04,07,10,13,0.00
2017,04,07,10,14,0.00
2017,04,07,10,15,0.00
2017,04,07,10,16,0.00
2017,04,07,10,17,0.00
2017,04,07,10,18,0.00
2017,04,07,10,19,0.00
2017,04,07,10,20,0.00
2017,04,07,10,21,0.00
2017,04,07,10,22,0.00
2017,04,07,10,23,0.00
2017,04,07,10,24,0.00
2017,04,07,10,25,0.00
2017,04,07,10,26,0.00
2017,04,07,10,27,0.00
2017,04,07,10,28,0.30
2017,04,07,10,29,0.10
2017,04,07,10,30,0.70
2017,04,07,10,31,0.20
2017,04,07,10,32,0.00
2017,04,07,10,33,0.00
2017,04,07,10,34,0.00
2017,04,07,10,35,0.00
2017,04,07,10,36,0.00
2017,04,07,10,37,0.00
2017,04,07,10,38,0.00
2017,04,07,10,39,0.00
2017,04,07,10,40,0.00
2017,04,07,10,41,0.00
2017,04,07,10,42,0.00
2017,04,07,10,43,0.90
2017,04,07,10,44,0.30
2017,04,07,10,45,0.00
2017,04,07,10,46,0.00
2017,04,07,10,47,0.00
2017,04,07,10,48,0.00
2017,04,07,10,49,0.00
2017,04,07,10,50,0.00
2017,04,07,10,51,0.00
2017,04,07,10,52,0.00
2017,04,07,10,53,0.10
2017,04,07,10,54,0.00
2017,04,07,10,55,0.00
2017,04,07,10,56,0.00
2017,04,07,10,57,0.00
2017,04,07,10,58,0.00
2017,04,07,10,59,1.40
2017,04,07,11,00,0.90
2017,04,07,11,01,1.30
2017,04,07,11,02,0.20
2017,04,07,11,03,0.00
2017,04,07,11,04,0.00
2017,04,07,11,05,0.00
2017,04,07,11,06,0.70
2017,04,07,11,07,0.50
2017,04,07,11,08,0.00
2017,04,07,11,09,0.00
2017,04,07,11,10,0.10
2017,04,07,11,11,0.20
2017,04,07,11,12,0.00
2017,04,07,11,13,0.00
2017,04,07,11,14,0.20
2017,04,07,11,15,0.00
2017,04,07,11,16,0.90
2017,04,07,11,17,1.20
2017,04,07,11,18,0.20
2017,04,07,11,19,1.20
2017,04,07,11,20,1.90
2017,04,07,11,21,1.60
2017,04,07,11,22,0.30
2017,04,07,11,23,0.40
2017,04,07,11,24,0.00
2017,04,07,11,25,0.00
2017,04,07,11,26,0.60
2017,04,07,11,27,1.50
2017,04,07,11,28,0.30
2017,04,07,11,29,0.50
2017,04,07,11,30,0.00
2017,04,07,11,31,0.80
2017,04,07,11,32,2.00
2017,04,07,11,33,0.60
2017,04,07,11,34,1.00
2017,04,07,11,35,2.10
2017,04,07,11,36,1.70
2017,04,07,11,37,1.90
2017,04,07,11,38,1.90
2017,04,07,11,39,1.90
2017,04,07,11,40,1.90
2017,04,07,11,41,1.80
2017,04,07,11,42,1.10
2017,04,07,11,43,1.60
2017,04,07,11,44,1.30
2017,04,07,11,45,0.30
2017,04,07,11,46,1.10
2017,04,07,11,47,1.90
2017,04,07,11,48,2.20
2017,04,07,11,49,1.90
2017,04,07,11,50,2.20
2017,04,07,11,51,0.40
2017,04,07,11,52,0.50
2017,04,07,11,53,0.60
2017,04,07,11,54,0.00
2017,04,07,11,55,0.20
2017,04,07,11,56,0.30
2017,04,07,11,57,0.00
2017,04,07,11,58,0.10
2017,04,07,11,59,0.60
2017,04,07,12,00,2.70
2017,04,07,12,01,1.80
2017,04,07,12,02,1.00
2017,04,07,12,03,0.80
2017,04,07,12,04,2.70
2017,04,07,12,05,1.60
2017,04,07,12,06,1.60
2017,04,07,12,07,1.00
2017,04,07,12,08,0.40
2017,04,07,12,09,0.60
2017,04,07,12,10,0.10
2017,04,07,12,11,0.60
2017,04,07,12,12,0.70
2017,04,07,12,13,0.60
2017,04,07,12,14,0.50
2017,04,07,12,15,1.50
2017,04,07,12,16,2.80
2017,04,07,12,17,1.50
2017,04,07,12,18,1.30
2017,04,07,12,19,1.80
2017,04,07,12,20,1.80
2017,04,07,12,21,1.20
2017,04,07,12,22,1.20
2017,04,07,12,23,0.90
2017,04,07,12,24,1.50
2017,04,07,12,25,0.10
2017,04,07,12,26,0.00
2017,04,07,12,27,1.70
2017,04,07,12,28,1.80
2017,04,07,12,29,2.50
2017,04,07,12,30,1.20
2017,04,07,12,31,0.20
2017,04,07,12,32,0.20
2017,04,07,12,33,0.60
2017,04,07,12,34,2.30
2017,04,07,12,35,2.10
2017,04,07,12,36,0.30
2017,04,07,12,37,0.50
2017,04,07,12,38,1.80
2017,04,07,12,39,1.20
2017,04,07,12,40,0.40
2017,04,07,12,41,1.70
2017,04,07,12,42,2.40
2017,04,07,12,43,2.90
2017,04,07,12,44,2.30
2017,04,07,12,45,1.10
2017,04,07,12,46,0.40
2017,04,07,12,47,1.20
2017,04,07,12,48,1.70
2017,04,07,12,49,0.90
2017,04,07,12,50,0.50
2017,04,07,12,51,1.40
2017,04,07,12,52,1.30
2017,04,07,12,53,2.20
2017,04,07,12,54,2.00
2017,04,07,12,55,1.90
2017,04,07,12,56,1.40
2017,04,07,12,57,0.50
2017,04,07,12,58,0.10
2017,04,07,12,59,1.20
2017,04,07,13,00,1.30
2017,04,07,13,01,3.00
2017,04,07,13,02,3.20
2017,04,07,13,03,1.90
2017,04,07,13,04,2.80
2017,04,07,13,05,2.30
2017,04,07,13,06,1.60
2017,04,07,13,07,1.30
2017,04,07,13,08,2.90
2017,04,07,13,09,3.10
2017,04,07,13,10,1.60
2017,04,07,13,11,3.50
2017,04,07,13,12,0.70
2017,04,07,13,13,1.60
2017,04,07,13,14,2.40
2017,04,07,13,15,2.10
2017,04,07,13,16,2.60
2017,04,07,13,17,1.60
2017,04,07,13,18,1.00
2017,04,07,13,19,2.10
2017,04,07,13,20,1.30
2017,04,07,13,21,0.80
2017,04,07,13,22,1.30
2017,04,07,13,23,0.60
2017,04,07,13,24,0.30
2017,04,07,13,25,0.10
2017,04,07,13,26,0.00
2017,04,07,13,27,0.60
2017,04,07,13,28,0.10
2017,04,07,13,29,0.00
2017,04,07,13,30,0.00
2017,04,07,13,31,0.00
2017,04,07,13,32,0.10
2017,04,07,13,33,2.20
2017,04,07,13,34,1.10
2017,04,07,13,35,0.90
2017,04,07,13,36,0.60
2017,04,07,13,37,1.20
2017,04,07,13,38,1.30
2017,04,07,13,39,0.10
2017,04,07,13,40,0.80
2017,04,07,13,41,1.80
2017,04,07,13,42,2.20
2017,04,07,13,43,2.10
2017,04,07,13,44,2.30
2017,04,07,13,45,1.70
2017,04,07,13,46,2.30
2017,04,07,13,47,2.40
2017,04,07,13,48,2.40
2017,04,07,13,49,1.70
2017,04,07,13,50,2.40
2017,04,07,13,51,1.60
2017,04,07,13,52,1.10
2017,04,07,13,53,1.40
2017,04,07,13,54,1.20
2017,04,07,13,55,2.80
2017,04,07,13,56,3.20
2017,04,07,13,57,1.40
2017,04,07,13,58,0.00
2017,04,07,13,59,0.00
2017,04,07,14,00,0.00
2017,04,07,14,01,0.00
2017,04,07,14,02,0.40
2017,04,07,14,03,1.70
2017,04,07,14,04,0.40
2017,04,07,14,05,0.20
2017,04,07,14,06,0.20
2017,04,07,14,07,0.20
2017,04,07,14,08,1.00
2017,04,07,14,09,0.70
2017,04,07,14,10,0.50
2017,04,07,14,11,2.20
2017,04,07,14,12,2.00
2017,04,07,14,13,0.20
2017,04,07,14,14,1.90
2017,04,07,14,15,1.80
2017,04,07,14,16,1.30
2017,04,07,14,17,1.40
2017,04,07,14,18,1.40
2017,04,07,14,19,1.90
2017,04,07,14,20,1.70
2017,04,07,14,21,0.60
2017,04,07,14,22,0.00
2017,04,07,14,23,0.00
2017,04,07,14,24,0.20
2017,04,07,14,25,2.50
2017,04,07,14,26,2.60
2017,04,07,14,27,1.80
2017,04,07,14,28,2.20
2017,04,07,14,29,2.10
2017,04,07,14,30,1.10
2017,04,07,14,31,1.20
2017,04,07,14,32,0.30
2017,04,07,14,33,0.80
2017,04,07,14,34,0.20
2017,04,07,14,35,1.20
2017,04,07,14,36,1.60
2017,04,07,14,37,1.50
2017,04,07,14,38,0.30
2017,04,07,14,39,0.50
2017,04,07,14,40,0.10
2017,04,07,14,41,1.30
2017,04,07,14,42,1.40
2017,04,07,14,43,0.30
2017,04,07,14,44,2.10
2017,04,07,14,45,1.30
2017,04,07,14,46,1.10
2017,04,07,14,47,0.60
2017,04,07,14,48,0.20
2017,04,07,14,49,0.60
2017,04,07,14,50,2.20
2017,04,07,14,51,1.50
2017,04,07,14,52,1.80
2017,04,07,14,53,1.90
2017,04,07,14,54,1.00
2017,04,07,14,55,1.70
2017,04,07,14,56,1.10
2017,04,07,14,57,1.50
2017,04,07,14,58,2.50
2017,04,07,14,59,2.40
2017,04,07,15,00,2.80
2017,04,07,15,01,4.40
2017,04,07,15,02,2.90
2017,04,07,15,03,3.30
2017,04,07,15,04,1.10
2017,04,07,15,05,1.30
2017,04,07,15,06,0.30
2017,04,07,15,07,3.40
2017,04,07,15,08,3.60
2017,04,07,15,09,2.20
2017,04,07,15,10,1.80
2017,04,07,15,11,0.60
2017,04,07,15,12,2.40
2017,04,07,15,13,3.50
2017,04,07,15,14,1.70
2017,04,07,15,15,2.00
2017,04,07,15,16,1.80
2017,04,07,15,17,1.70
2017,04,07,15,18,3.50
2017,04,07,15,19,3.30
2017,04,07,15,20,2.90
2017,04,07,15,21,1.10
2017,04,07,15,22,1.70
2017,04,07,15,23,1.70
2017,04,07,15,24,1.40
2017,04,07,15,25,2.80
2017,04,07,15,26,3.10
2017,04,07,15,27,5.70
2017,04,07,15,28,4.00
2017,04,07,15,29,3.00
2017,04,07,15,30,3.40
2017,04,07,15,31,2.00
2017,04,07,15,32,1.90
2017,04,07,15,33,1.90
2017,04,07,15,34,1.40
2017,04,07,15,35,3.60
2017,04,07,15,36,2.60
2017,04,07,15,37,2.80
2017,04,07,15,38,1.60
2017,04,07,15,39,1.70
2017,04,07,15,40,1.40
2017,04,07,15,41,0.90
2017,04,07,15,42,2.50
2017,04,07,15,43,1.40
2017,04,07,15,44,3.80
2017,04,07,15,45,2.90
2017,04,07,15,46,1.30
2017,04,07,15,47,1.70
2017,04,07,15,48,3.20
2017,04,07,15,49,3.40
2017,04,07,15,50,4.90
2017,04,07,15,51,3.70
2017,04,07,15,52,6.80
2017,04,07,15,53,4.00
2017,04,07,15,54,2.70
2017,04,07,15,55,4.00
2017,04,07,15,56,3.70
2017,04,07,15,57,2.70
2017,04,07,15,58,3.50
2017,04,07,15,59,1.30
2017,04,07,16,00,7.20
2017,04,07,16,01,4.20
2017,04,07,16,02,1.10
2017,04,07,16,03,4.50
2017,04,07,16,04,7.60
2017,04,07,16,05,5.60
2017,04,07,16,06,7.40
2017,04,07,16,07,6.40
2017,04,07,16,08,4.00
2017,04,07,16,09,10.50
2017,04,07,16,10,9.80
2017,04,07,16,11,9.00
2017,04,07,16,12,1.70
2017,04,07,16,13,7.00
2017,04,07,16,14,4.30
2017,04,07,16,15,4.00
2017,04,07,16,16,8.00
2017,04,07,16,17,5.90
2017,04,07,16,18,7.10
2017,04,07,16,19,2.60
2017,04,07,16,20,4.70
2017,04,07,16,21,5.70
2017,04,07,16,22,3.30
2017,04,07,16,23,11.00
2017,04,07,16,24,5.80
2017,04,07,16,25,4.50
2017,04,07,16,26,8.50
2017,04,07,16,27,6.60
2017,04,07,16,28,10.80
2017,04,07,16,29,5.50
2017,04,07,16,30,4.80
2017,04,07,16,31,5.80
2017,04,07,16,32,3.70
2017,04,07,16,33,7.80
2017,04,07,16,34,6.10
2017,04,07,16,35,3.80
2017,04,07,16,36,3.40
2017,04,07,16,37,11.90
2017,04,07,16,38,8.70
2017,04,07,16,39,10.30
2017,04,07,16,40,7.00
2017,04,07,16,41,3.80
2017,04,07,16,42,16.60
2017,04,07,16,43,13.70
2017,04,07,16,44,8.90
2017,04,07,16,45,11.30
2017,04,07,16,46,9.10
2017,04,07,16,47,6.00
2017,04,07,16,48,4.30
2017,04,07,16,49,11.30
2017,04,07,16,50,15.40
2017,04,07,16,51,9.80
2017,04,07,16,52,10.80
2017,04,07,16,53,6.40
2017,04,07,16,54,12.30
2017,04,07,16,55,5.50
2017,04,07,16,56,9.40
2017,04,07,16,57,8.40
2017,04,07,16,58,12.20
2017,04,07,16,59,10.00
2017,04,07,17,00,10.30
2017,04,07,17,01,6.90
2017,04,07,17,02,10.40
2017,04,07,17,03,15.30
2017,04,07,17,04,10.90
2017,04,07,17,05,5.20
2017,04,07,17,06,13.90
2017,04,07,17,07,7.60
2017,04,07,17,08,7.90
2017,04,07,17,09,12.70
2017,04,07,17,10,8.30
2017,04,07,17,11,11.40
2017,04,07,17,12,8.50
2017,04,07,17,13,8.30
2017,04,07,17,14,9.30
2017,04,07,17,15,8.20
2017,04,07,17,16,8.80
2017,04,07,17,17,6.80
2017,04,07,17,18,14.50
2017,04,07,17,19,9.50
2017,04,07,17,20,5.00
2017,04,07,17,21,10.40
2017,04,07,17,22,12.50
2017,04,07,17,23,12.00
2017,04,07,17,24,12.40
2017,04,07,17,25,10.90
2017,04,07,17,26,10.80
2017,04,07,17,27,12.50
2017,04,07,17,28,7.60
2017,04,07,17,29,10.10
2017,04,07,17,30,6.50
2017,04,07,17,31,15.60
2017,04,07,17,32,13.50
2017,04,07,17,33,11.30
2017,04,07,17,34,11.30
2017,04,07,17,35,14.90
2017,04,07,17,36,9.70
2017,04,07,17,37,8.00
2017,04,07,17,38,7.70
2017,04,07,17,39,7.00
2017,04,07,17,40,3.00
2017,04,07,17,41,6.80
2017,04,07,17,42,9.70
2017,04,07,17,43,7.90
2017,04,07,17,44,14.50
2017,04,07,17,45,10.70
2017,04,07,17,46,9.10
2017,04,07,17,47,11.40
2017,04,07,17,48,11.20
2017,04,07,17,49,9.00
2017,04,07,17,50,5.10
2017,04,07,17,51,5.20
2017,04,07,17,52,6.10
2017,04,07,17,53,6.20
2017,04,07,17,54,8.30
2017,04,07,17,55,7.20
2017,04,07,17,56,7.30
2017,04,07,17,57,7.10
2017,04,07,17,58,9.00
2017,04,07,17,59,7.70
2017,04,07,18,00,4.50
2017,04,07,18,01,9.70
2017,04,07,18,02,8.00
2017,04,07,18,03,8.00
2017,04,07,18,04,9.20